Precipitable_Water
0.97 1.18 1.19 1.15 1.06 0.96 0.89 0.77 0.71 0.77 0.78 0.79 0.82 0.86 0.86 0.84 0.86 0.90 0.89 0.90 0.90 0.88 0.86 0.85 0.85 0.91 0.92 0.89 0.92 0.95 0.91 0.85 0.80 0.82 0.80 0.77 0.71 0.71 0.66 0.67 0.70 0.73 0.78
1.02 1.19 1.18 1.14 1.08 1.01 0.95 0.85 0.75 0.77 0.84 0.88 0.90 0.89 0.86 0.84 0.85 0.88 0.89 0.91 0.92 0.89 0.87 0.87 0.89 0.92 0.94 0.95 0.97 0.98 0.99 0.94 0.88 0.78 0.81 0.83 0.77 0.74 0.66 0.60 0.60 0.61 0.64
1.00 1.17 1.19 1.12 1.09 1.06 1.00 0.92 0.81 0.81 0.86 0.89 0.93 0.91 0.91 0.88 0.88 0.89 0.91 0.93 0.93 0.92 0.91 0.88 0.85 0.85 0.88 0.92 0.95 0.96 0.95 0.92 0.89 0.88 0.83 0.84 0.83 0.82 0.76 0.69 0.62 0.59 0.58
1.04 1.14 1.17 1.11 1.09 1.07 1.02 0.96 0.86 0.85 0.87 0.88 0.89 0.89 0.89 0.88 0.88 0.90 0.90 0.95 0.97 0.99 0.96 0.95 0.90 0.86 0.89 0.96 0.98 0.99 0.97 0.96 0.95 0.93 0.92 0.88 0.88 0.88 0.87 0.82 0.75 0.69 0.64
1.10 1.12 1.14 1.11 1.10 1.07 1.03 0.94 0.87 0.83 0.86 0.87 0.86 0.84 0.84 0.87 0.88 0.90 0.92 0.95 0.99 1.00 1.00 0.99 0.93 0.90 0.92 0.98 1.00 0.97 0.97 1.01 1.01 1.01 1.01 0.96 0.95 1.00 0.97 0.93 0.87 0.81 0.76
1.13 1.11 1.13 1.11 1.11 1.07 1.02 0.94 0.84 0.80 0.83 0.86 0.84 0.81 0.81 0.82 0.85 0.87 0.90 0.92 0.93 0.96 0.95 0.92 0.91 0.92 0.93 0.96 0.98 0.99 1.00 1.02 1.03 1.03 1.02 1.04 1.00 1.06 1.04 1.04 1.00 0.94 0.92
1.07 1.09 1.12 1.11 1.11 1.08 1.01 0.93 0.82 0.78 0.81 0.84 0.83 0.81 0.81 0.80 0.83 0.85 0.86 0.89 0.89 0.89 0.88 0.88 0.88 0.90 0.91 0.92 0.95 0.96 1.00 1.08 1.13 1.12 1.10 1.14 1.09 1.13 1.13 1.15 1.13 1.11 1.06
1.05 1.04 1.09 1.12 1.12 1.09 0.98 0.93 0.80 0.78 0.80 0.83 0.82 0.82 0.83 0.80 0.80 0.83 0.86 0.86 0.86 0.85 0.82 0.82 0.82 0.85 0.89 0.95 0.99 0.97 1.03 1.13 1.16 1.13 1.13 1.16 1.14 1.18 1.23 1.22 1.20 1.17 1.16
1.11 1.04 1.08 1.12 1.12 1.09 0.97 0.91 0.80 0.79 0.81 0.84 0.83 0.82 0.83 0.81 0.82 0.83 0.84 0.87 0.87 0.84 0.81 0.81 0.81 0.83 0.94 1.04 1.04 1.01 1.08 1.14 1.16 1.15 1.13 1.15 1.16 1.22 1.22 1.18 1.13 1.08 1.05
1.07 1.07 1.07 1.11 1.11 1.07 0.99 0.91 0.82 0.83 0.84 0.85 0.86 0.84 0.85 0.84 0.85 0.87 0.89 0.91 0.90 0.89 0.87 0.85 0.84 0.83 0.97 1.09 1.11 1.15 1.18 1.21 1.22 1.21 1.22 1.20 1.19 1.18 1.15 1.12 1.08 1.04 1.07
1.06 1.06 1.09 1.09 1.08 1.05 0.98 0.92 0.87 0.88 0.89 0.89 0.88 0.88 0.87 0.87 0.88 0.89 0.91 0.93 0.95 0.95 0.95 0.92 0.89 0.96 1.02 1.16 1.21 1.22 1.26 1.27 1.25 1.25 1.23 1.17 1.10 1.09 1.13 1.13 1.12 1.14 1.16
0.93 1.00 1.07 1.07 1.04 1.03 0.98 0.93 0.89 0.92 0.94 0.94 0.93 0.91 0.90 0.89 0.90 0.92 0.94 0.95 1.01 1.01 1.00 0.97 0.96 1.06 1.15 1.20 1.26 1.31 1.30 1.29 1.27 1.25 1.13 1.07 1.08 1.10 1.16 1.19 1.19 1.14 1.14
0.95 0.97 1.02 1.08 1.07 1.02 0.97 0.95 0.91 0.92 0.94 0.97 0.98 0.96 0.95 0.91 0.91 0.97 0.99 1.03 1.10 1.13 1.09 1.07 1.09 1.14 1.17 1.21 1.27 1.31 1.33 1.35 1.29 1.13 0.99 0.99 1.01 1.07 1.14 1.15 1.04 1.07 1.07
0.91 0.96 1.03 1.06 1.05 1.06 1.03 0.97 0.92 0.90 0.94 0.95 0.99 1.01 0.99 0.93 0.89 0.95 1.00 1.07 1.14 1.18 1.15 1.17 1.19 1.21 1.22 1.31 1.35 1.39 1.39 1.28 1.18 1.00 0.89 0.81 0.88 0.96 1.02 1.07 1.04 1.04 1.01
0.89 0.94 0.98 1.06 1.05 1.06 1.05 1.04 0.98 0.92 0.92 0.94 0.98 1.03 1.04 0.99 0.93 0.98 1.04 1.11 1.18 1.25 1.25 1.20 1.22 1.26 1.33 1.36 1.42 1.42 1.34 1.04 0.94 0.86 0.76 0.80 0.90 0.97 1.02 1.03 1.00 0.96 0.92
0.91 0.91 0.99 1.03 1.07 1.08 1.03 1.03 1.02 1.00 0.97 0.98 1.00 1.03 1.09 1.08 1.03 1.01 1.09 1.17 1.22 1.26 1.31 1.23 1.27 1.38 1.44 1.49 1.39 1.33 1.16 0.91 0.82 0.72 0.72 0.81 0.88 0.91 0.92 0.93 0.91 0.88 0.86
0.90 0.95 0.96 1.01 1.08 1.05 1.04 1.05 1.04 1.04 1.04 1.03 1.05 1.09 1.12 1.15 1.13 1.10 1.11 1.20 1.29 1.29 1.33 1.30 1.37 1.54 1.44 1.37 1.23 1.09 0.94 0.79 0.67 0.66 0.73 0.74 0.79 0.82 0.84 0.84 0.79 0.76 0.74
1.00 0.94 1.01 1.05 1.04 1.07 1.11 1.11 1.07 1.08 1.08 1.08 1.13 1.15 1.17 1.21 1.21 1.18 1.14 1.20 1.33 1.35 1.31 1.29 1.37 1.38 1.33 1.21 1.09 0.96 0.76 0.67 0.61 0.64 0.66 0.65 0.68 0.72 0.77 0.76 0.73 0.73 0.74
0.99 1.00 1.00 1.05 1.02 1.09 1.19 1.21 1.20 1.16 1.16 1.15 1.20 1.24 1.27 1.29 1.30 1.25 1.21 1.29 1.37 1.36 1.34 1.29 1.34 1.34 1.22 1.13 1.01 0.93 0.69 0.62 0.59 0.61 0.61 0.63 0.68 0.71 0.72 0.72 0.69 0.69 0.69
1.03 1.11 1.11 1.12 1.08 1.11 1.21 1.23 1.23 1.20 1.18 1.20 1.19 1.22 1.28 1.33 1.39 1.36 1.33 1.33 1.41 1.36 1.34 1.30 1.29 1.28 1.18 1.08 0.94 0.81 0.62 0.57 0.56 0.58 0.60 0.66 0.71 0.73 0.72 0.70 0.68 0.66 0.65
1.00 1.09 1.11 1.11 1.12 1.15 1.12 1.13 1.12 1.07 1.15 1.17 1.23 1.28 1.30 1.34 1.44 1.40 1.39 1.40 1.42 1.34 1.35 1.34 1.30 1.21 1.10 1.05 0.90 0.65 0.58 0.56 0.55 0.59 0.66 0.70 0.73 0.74 0.72 0.68 0.66 0.63 0.61
0.87 0.97 1.06 1.12 1.17 1.15 1.16 1.16 1.21 1.19 1.20 1.27 1.30 1.29 1.32 1.36 1.47 1.43 1.43 1.43 1.41 1.34 1.36 1.30 1.29 1.16 1.08 1.04 0.85 0.58 0.46 0.50 0.56 0.62 0.69 0.73 0.74 0.75 0.70 0.68 0.65 0.62 0.61
0.78 0.89 0.96 1.03 1.11 1.12 1.17 1.24 1.28 1.30 1.27 1.24 1.23 1.25 1.29 1.39 1.48 1.48 1.47 1.48 1.46 1.39 1.34 1.30 1.27 1.21 1.09 1.05 0.93 0.56 0.45 0.43 0.53 0.66 0.71 0.76 0.77 0.73 0.70 0.67 0.64 0.62 0.61
0.61 0.83 0.96 1.05 1.16 1.27 1.27 1.17 1.12 1.04 1.03 1.07 1.18 1.29 1.33 1.41 1.49 1.52 1.49 1.49 1.46 1.45 1.40 1.35 1.33 1.24 1.19 1.04 0.93 0.67 0.58 0.54 0.50 0.54 0.71 0.77 0.79 0.74 0.70 0.65 0.63 0.63 0.60
0.51 0.60 0.74 0.90 1.04 1.13 1.24 1.23 1.19 1.12 1.09 1.19 1.22 1.25 1.33 1.40 1.48 1.54 1.52 1.52 1.45 1.45 1.48 1.44 1.37 1.25 1.18 1.08 0.94 0.65 0.62 0.62 0.63 0.59 0.59 0.68 0.77 0.74 0.71 0.69 0.67 0.63 0.60
0.52 0.57 0.62 0.69 0.81 0.97 1.06 1.16 1.16 1.11 1.15 1.16 1.15 1.14 1.22 1.33 1.43 1.55 1.59 1.53 1.48 1.45 1.50 1.47 1.44 1.33 1.20 1.11 0.96 0.68 0.62 0.59 0.61 0.63 0.64 0.69 0.73 0.71 0.72 0.69 0.66 0.62 0.59
Wind_Speed
3 6 6 6 7 8 9 9 9 10 10 10 10 10 10 10 10 10 10 10 10 11 11 11 11 12 12 12 12 12 12 12 12 12 12 13 13 13 13 13 13 12 12
5 6 6 6 7 7 8 8 8 9 9 9 9 9 9 9 9 10 10 10 11 11 11 11 11 11 11 11 11 11 10 11 11 11 11 11 11 12 12 12 12 12 12
6 6 7 6 6 7 7 7 8 8 8 8 9 9 8 8 9 9 10 10 11 11 12 12 12 12 11 11 11 11 10 9 9 9 10 11 11 11 11 11 11 10 10
6 6 7 6 6 7 6 7 7 7 7 7 8 8 8 8 8 8 9 9 10 10 10 11 11 11 10 10 10 10 10 9 9 8 8 9 9 9 9 9 9 9 9
6 7 7 7 7 7 6 6 6 6 6 6 7 7 6 6 6 7 7 7 8 8 8 8 8 8 8 8 8 8 8 8 8 7 6 7 7 7 8 8 8 8 8
6 7 7 7 7 7 6 6 6 6 5 6 6 6 5 5 5 5 5 5 6 6 6 6 5 5 5 5 5 5 5 6 6 5 4 4 5 6 6 7 7 7 7
6 7 8 7 7 7 7 6 6 6 6 6 6 5 5 5 4 4 4 4 4 3 3 3 3 3 3 3 3 3 3 3 4 4 2 2 3 4 6 7 7 8 8
6 7 8 8 7 7 7 7 7 7 7 6 6 6 5 5 4 4 4 3 2 1 0 0 1 1 2 2 3 2 2 3 3 4 3 2 3 5 6 7 8 9 9
6 7 8 8 8 8 8 8 8 7 8 7 7 7 6 6 5 5 4 4 3 3 3 3 3 3 3 3 4 4 4 4 4 5 5 4 5 6 8 9 9 10 11
7 8 8 9 9 9 9 9 9 8 8 9 8 8 8 7 7 6 6 6 6 5 5 5 5 5 5 5 5 5 6 6 6 6 6 6 7 8 9 10 12 13 13
7 8 9 9 10 10 10 10 10 10 10 9 10 10 9 9 9 9 9 9 9 9 9 9 8 8 8 8 7 7 7 8 8 8 9 9 9 10 11 13 14 15 15
6 8 10 10 11 11 11 11 12 12 11 11 10 11 11 11 11 11 11 12 12 12 12 12 12 11 11 11 11 11 10 11 10 10 9 10 10 11 13 15 16 16 17
7 8 10 11 12 13 13 13 13 13 13 13 13 12 12 13 13 13 13 13 14 14 14 14 14 14 13 13 13 13 13 12 12 11 10 11 12 14 15 16 17 17 17
9 9 11 12 13 14 14 15 15 15 15 15 15 14 14 14 14 14 14 14 14 14 14 14 14 15 15 14 14 14 13 13 12 11 11 12 13 15 15 16 17 17 18
11 11 12 13 14 15 16 17 17 17 17 16 16 16 16 15 15 15 15 15 15 15 15 15 15 15 15 15 14 14 12 11 11 11 12 13 14 15 16 17 18 19 19
14 13 13 14 15 16 17 17 18 18 18 18 18 17 17 17 17 17 17 17 17 16 16 16 15 15 14 14 14 13 13 14 13 13 14 15 16 17 18 18 19 20 21
17 16 15 15 16 17 18 19 19 19 20 21 20 20 19 19 18 19 19 19 18 18 18 17 16 15 15 15 15 15 15 15 14 15 15 16 17 18 19 19 21 22 23
20 20 18 17 17 18 18 18 19 20 21 22 23 22 22 21 21 20 20 20 20 20 19 19 18 17 17 17 17 17 16 16 16 16 17 17 18 19 20 21 22 24 25
25 23 22 21 20 19 19 19 19 20 20 21 22 23 23 23 23 23 22 21 21 21 21 20 19 19 18 18 18 17 17 17 17 17 17 18 19 20 21 23 24 26 28
29 28 26 25 24 23 22 22 22 23 23 23 24 24 25 25 25 25 24 23 23 22 22 21 20 20 20 19 18 18 18 18 18 18 19 19 20 22 24 25 27 28 29
30 30 30 29 28 26 25 25 24 26 26 26 26 26 27 27 26 26 26 26 25 24 23 22 21 21 20 19 18 18 18 19 19 19 20 21 22 24 25 26 28 29 30
31 32 32 32 31 31 30 29 27 27 27 28 28 28 28 28 27 27 27 27 27 26 25 25 24 22 21 21 20 19 19 20 21 21 21 22 23 24 26 27 29 30 30
32 32 33 34 35 33 33 31 30 29 29 29 30 30 30 30 29 28 28 28 29 29 28 27 26 25 23 23 23 21 19 21 20 21 22 23 24 26 27 29 30 30 31
28 32 34 37 37 37 35 34 34 33 32 32 32 31 31 31 31 30 30 29 30 31 31 30 29 27 25 24 24 24 23 22 21 22 23 25 26 27 29 30 30 30 31
30 31 33 35 37 39 40 40 38 37 36 33 33 33 33 33 33 32 32 32 31 33 34 33 31 29 28 26 25 25 25 24 24 24 25 26 27 29 29 30 30 30 32
29 29 31 33 36 37 39 41 42 41 40 38 35 34 34 34 34 34 34 34 33 33 35 34 32 31 30 29 28 27 27 26 27 26 27 27 28 28 30 29 30 31 32
Wind_Direction
159 146 135 124 117 111 107 105 105 103 105 106 107 106 102 98 94 90 85 85 85 85 86 86 87 86 85 84 82 79 78 76 75 74 73 72 71 70 70 69 67 65 64
149 151 144 136 128 121 116 112 112 109 108 109 110 109 105 100 96 91 88 88 88 87 88 88 87 87 86 84 81 78 78 78 75 72 72 71 70 68 68 66 64 63 61
158 156 152 144 142 135 127 123 117 118 115 113 115 112 108 104 100 96 92 91 91 91 90 88 88 87 86 83 80 76 76 75 73 74 73 71 70 69 65 62 60 58 55
164 162 161 157 154 150 143 138 129 126 125 122 121 119 113 108 106 100 98 97 95 93 91 90 88 87 85 83 78 74 72 71 72 76 77 72 69 65 59 54 50 47 44
171 172 172 169 166 161 156 153 147 138 137 134 132 128 122 118 116 110 106 103 100 98 93 90 88 85 82 79 75 70 66 66 66 69 74 70 63 57 49 43 37 33 28
180 182 180 176 175 171 168 166 164 159 153 151 147 144 137 134 131 127 120 115 110 103 97 91 85 80 74 70 62 60 57 57 57 56 63 62 51 43 34 27 22 18 12
188 189 186 185 182 182 182 178 177 177 172 171 168 165 160 157 155 154 146 137 129 117 102 88 77 67 57 47 36 29 28 31 31 27 26 31 19 12 8 5 1 356 350
192 192 193 193 193 193 192 190 189 190 190 188 189 188 187 182 179 178 179 177 172 172 176 28 9 5 1 359 353 347 345 349 354 353 352 329 332 339 341 341 340 339 335
203 199 201 202 203 203 202 201 201 201 203 203 205 205 206 205 204 203 209 216 226 240 255 272 289 304 311 322 321 317 317 313 322 328 319 302 308 320 324 326 327 328 326
212 207 208 210 211 212 210 209 210 211 213 216 218 219 221 224 227 230 234 239 244 253 260 268 276 283 287 297 303 303 302 300 307 309 310 297 297 306 313 316 317 317 317
224 218 217 218 219 220 218 217 217 219 222 225 227 229 232 235 239 244 248 253 257 261 264 268 271 276 279 285 290 293 295 297 298 299 299 297 295 301 306 309 312 313 312
224 226 226 226 225 225 225 224 224 227 229 232 235 236 239 243 248 251 255 259 263 265 268 269 270 272 276 279 284 287 290 292 291 294 293 294 294 301 305 308 307 309 310
241 239 236 232 230 229 231 230 231 233 234 236 239 242 245 249 252 255 260 262 265 267 270 271 270 271 274 278 280 284 286 288 287 287 288 293 296 301 304 307 308 307 309
249 249 246 240 235 234 235 236 236 238 239 240 241 243 248 252 256 258 260 262 266 268 270 271 270 270 273 275 278 282 283 288 283 282 287 292 299 302 305 308 309 309 308
256 253 253 243 241 240 240 240 241 241 241 241 243 246 249 254 258 259 261 263 265 267 269 271 270 271 272 272 276 279 278 281 281 283 288 293 299 303 305 307 308 309 309
254 255 254 249 245 245 244 243 244 243 243 243 246 249 252 255 258 259 261 263 265 266 267 269 270 270 267 269 275 273 275 277 279 281 287 293 298 301 303 305 307 308 309
256 254 256 252 249 247 247 246 246 246 245 247 249 250 253 256 258 260 262 263 264 264 266 267 268 265 267 269 273 273 273 275 277 281 286 292 296 300 302 303 305 306 307
255 253 253 254 251 249 250 248 248 248 249 251 251 252 254 257 258 261 262 263 262 262 264 265 264 264 265 269 272 272 271 273 275 280 285 291 295 298 301 302 304 305 306
253 253 251 253 253 250 250 251 250 250 252 253 254 254 255 257 258 260 261 262 261 262 263 262 261 262 265 268 270 270 270 272 276 279 284 290 294 297 300 302 303 304 306
255 253 252 252 253 253 254 254 254 255 255 256 257 257 258 258 259 259 260 261 261 261 260 259 259 263 265 265 267 268 269 272 274 278 283 288 293 297 300 302 304 305 306
256 253 250 250 251 252 253 254 255 255 257 258 259 260 260 259 260 259 260 259 260 258 256 256 259 260 262 262 265 268 269 271 274 278 283 288 293 297 300 303 304 306 307
257 254 250 249 250 252 254 255 256 258 259 260 261 262 260 259 260 260 259 259 258 256 254 254 256 259 262 259 264 267 270 272 273 278 282 288 293 297 301 303 305 306 307
259 257 251 249 251 252 253 254 255 259 260 261 261 261 261 259 260 260 260 259 257 255 253 253 254 255 258 260 261 265 271 272 275 277 280 287 293 298 301 304 305 306 307
266 259 255 253 254 252 251 252 252 257 258 261 261 261 260 259 259 259 260 260 259 255 253 252 253 254 256 259 262 263 269 272 275 281 283 287 293 297 300 303 304 305 307
267 263 261 259 256 253 251 252 255 257 259 263 262 261 260 259 258 259 260 260 260 257 254 251 251 252 255 258 261 263 267 271 274 279 284 288 292 295 298 301 302 304 306
268 266 265 262 259 257 255 253 254 257 258 259 260 261 259 259 257 258 260 260 260 260 256 253 252 251 254 258 260 262 265 270 274 278 282 287 292 295 298 300 302 304 307